BREEZE-M R/B (43433 NORAD) Tracking and Keplerian Element Data

This shows tracking and keplerian element data for the satellite.

Feedback or suggestion? Click here.




ElementValue
Catalog43433
NameBREEZE-M R/B
Epoch Orbit45
Epoch Day135.78977052
Epoch Year2018
RAAN246.6401
Inclination0.0342
Eccentricity0.0663143
Argument of Perigee173.143
Mean Anonmoly306.6672
Mean Motion0.90515154
Decay Rate-1.35E-06
L11 43433U 18037B 18135.78977052 -.00000135 00000-0 00000-0 0 9999
L22 43433 0.0342 246.6401 0663143 173.1430 306.6672 0.90515154 452

Live tracking and technical data element details for BREEZE-M R/B (NORAD 43433). BREEZE-M R/B can be tracked NOW for your location showing map with azimuth and elevation plus other details from your city location.

Track the satellite on the map from your city or location and see movement details for azimuth, elevation, latitude, longitude, range, height, and movement on the map or in text.







IsCatalogInMostPopularTable: catalog: 43433, numindb: 64
Update: records affected: 1



GetName: 43433 BREEZE-M R/B

Hit Count: updated at: Thu, 15 Nov 2018 04:55:51 GMT